Miscellaneous Local Product
Issued by NWS North Platte, NE

Home | Current Version | Previous Version | Text Only | Print | Product List | Glossary On
Versions: 1 2 3 4 5 6 7 8 9 10 11 12 13 14 15 16 17 18 19 20 21 22 23 24 25 26 27 28 29 30 31 32 33 34 35 36 37 38 39 40 41 42 43 44 45 46 47 48 49 50
000
AXUS43 KLBF 240010
MISLBF


WESTERN AND NORTH CENTRAL NEBRASKA HOURLY WEATHER ROUNDUP
NATIONAL WEATHER SERVICE NORTH PLATTE NE
600 PM CST FRI FEB 23 2018

NOTE: "FAIR" INDICATES FEW OR NO CLOUDS BELOW 12,000 FEET WITH NO
SIGNIFICANT WEATHER AND/OR OBSTRUCTIONS TO VISIBILITY.

NOTE: STATIONS NOT REPORTING VARIABLES SUCH AS SKY/WEATHER OR
PRESSURE ARE PROVIDED BY RAWS AND APRS NETWORKS AND ARE NOT UNDER
NATIONAL WEATHER SERVICE QUALITY CONTROL.

...OBSERVATIONS IN AND NEAR THE EASTERN PANHANDLE OF NEBRASKA...

CITY           SKY/WX    TMP DP  RH WIND       PRES   REMARKS
PINE RIDGE     MOCLDY    21  10  62 CALM      30.10S
GORDON         FAIR      18   9  65 SE5       30.09S WCI  11
CHADRON        CLEAR     18   8  65 CALM      30.09S
ALLIANCE       CLEAR     20  14  77 E6        30.05S WCI  12
SIDNEY         CLEAR     27  17  66 E12       30.02S WCI  17
$$

...OBSERVATIONS IN NORTHERN NEBRASKA AND FAR SOUTHERN SOUTH DAKOTA...

CITY           SKY/WX    TMP DP  RH WIND       PRES   REMARKS
WINNER         FAIR      17   8  67 E3        30.25R
VALENTINE      CLEAR     22  11  62 E3        30.18F
AINSWORTH      CLEAR     19  13  79 CALM      30.19S
O`NEILL        CLEAR     16  13  85 CALM      30.24S
THEDFORD       CLEAR     23  17  75 NE7       30.16S WCI  15
BROKEN BOW     CLEAR     18  10  71 N7        30.17F WCI   9
ORD            CLEAR     24  17  74 NE5       30.20F WCI  18
ALBION         CLEAR     24  19  82 NE7       30.24S WCI  16
VALENTINE NWR    N/A     26  13  57 CALM        N/A
HALSEY           N/A     24  12  59 E6          N/A  WCI  17
BUTTE            N/A     19  14  79 CALM        N/A
CHAMBERS         N/A     20   9  62 CALM        N/A
EWING            N/A     18  14  82 CALM        N/A
$$

...OBSERVATIONS IN SOUTHWEST NEBRASKA AND FAR NORTHEAST COLORADO...

CITY           SKY/WX    TMP DP  RH WIND       PRES   REMARKS
WRAY           CLOUDY    32  23  69 E12G18    30.03S WCI  23
HOLYOKE        FAIR      34  23  64 E14       30.05S WCI  24
IMPERIAL       CLEAR     29  21  72 E9        30.08S WCI  20
OGALLALA       CLEAR     27  19  71 E9        30.09S WCI  18
NORTH PLATTE   CLEAR     23  16  74 E12       30.14F WCI  12
MCCOOK         CLEAR     34  23  64 E13       30.11S WCI  25
LEXINGTON      CLOUDY    26  22  84 E6        30.18R WCI  20
STAPLETON        N/A     21  14  73 E3          N/A
$$

...OBSERVATIONS IN CENTRAL LINCOLN COUNTY AREA...

CITY           SKY/WX    TMP DP  RH WIND       PRES   REMARKS
N.P. AIRPORT   CLEAR     23  16  74 E12       30.14F WCI  12
N.P. DOWNTOWN    N/A     23  18  80 E3          N/A
N.P. SOUTHEAST   N/A     22  16  77 E3          N/A
N.P. HILLCREST   N/A     23  18  80 E8          N/A  WCI  14
$$

...OBSERVATIONS ACROSS THE ROCKIES AND WESTERN HIGH PLAINS...

CITY           SKY/WX    TMP DP  RH WIND       PRES   REMARKS
RAPID CITY     CLEAR     15   5  64 SE15      30.08S WCI   0
SCOTTSBLUFF    MOCLDY    24  15  68 E9        30.04S WCI  14
CHEYENNE       MOCLDY    23  18  81 S6        29.91F HAZE    WCI  16
DENVER         CLOUDY    25  20  81 NW15G23   29.89R HAZE    WCI  13
BERTHOUD PASS  LGT SNOW   5  -4  66 SW5       29.75F VSB 3/4 WCI  -4
COPPER MTN     CLOUDY    16   5  62 S3        29.75S
MONARCH PASS   LGT SNOW  12   1  62 SW48G60   29.84S WCI -13
ASPEN          MOCLDY    27  13  55 N6        29.80R WCI  20
LARAMIE        MOCLDY    19  15  84 SE20      29.81S WCI   3
CASPER         LGT SNOW  17  10  74 MISG      29.92F
$$

...OBSERVATIONS ACROSS THE NORTHERN PLAINS...

CITY           SKY/WX    TMP DP  RH WIND       PRES   REMARKS
BISMARCK       CLEAR     17   7  64 W6        30.19S WCI   9
FARGO          FAIR      10   4  76 SW8       30.26R WCI  -2
SIOUX FALLS    CLOUDY    18  16  92 W6        30.30S WCI  10
$$

...OBSERVATIONS ACROSS THE CENTRAL AND SOUTHERN PLAINS...

CITY           SKY/WX    TMP DP  RH WIND       PRES   REMARKS
OMAHA          MOCLDY    25  20  81 N16       30.27F WCI  12
GRAND ISLAND   CLOUDY    26  21  81 NE10      30.22F WCI  16
KANSAS CITY    CLOUDY    34  29  82 E6        30.25R WCI  29
WICHITA        CLOUDY    34  32  92 NE12      30.15F WCI  25
DODGE CITY     CLOUDY    30  26  85 E10       30.08F WCI  21
OKLAHOMA CITY  CLOUDY    38  36  92 NE13      30.08F WCI  30
DALLAS         DRZL/FOG  49  48  97 NW7       30.04F VSB 1/4
AMARILLO       CLOUDY    45  33  63 SE22      29.93F
$$




USA.gov is the U.S. government's official web portal to all federal, state and local government web resources and services.